Location: Corralito
(10.2667°N, 66.9500°W)
Time: 19:26:54
(UTC+00:00)

In-Cosmos 22 - Pass Details

Date: 23 March 2023
Orbit: 784 x 876 km, 81.2° (Epoch: 09 June)

Event Time Altitude Azimuth Distance (km) Brightness Sun altitude
Rises 23:40:24 0° 1° (N) 3,441 7.4 -16.0°
Reaches altitude 10° 23:42:51 10° 5° (N) 2,512 6.7 -16.6°
Maximum altitude 23:48:29 60° 84° (E) 998 4.2 -18.0°
Drops below altitude 10° 23:54:09 10° 163° (SSE) 2,521 6.5 -19.4°
Sets 23:56:37 0° 167° (SSE) 3,455 7.2 -20.0°
